This is the latest recevied weather packets stored in our database for station/object N9PBY-2. If no packets are shown the sender has not sent any weather packets the latest 10 day(s).
| Time | Temp. | Humidity | Pressure | Rain* | Wind** | Luminosity | Snow |
|---|---|---|---|---|---|---|---|
| 1777392607 | 12.22° C | 62% | 1011.3 hPa | 0 mm | - | - | - |
| 1777392006 | 12.22° C | 62% | 1011 hPa | 0 mm | - | - | - |
| 1777391406 | 12.22° C | 63% | 1011.1 hPa | 0 mm | - | - | - |
| 1777390807 | 11.67° C | 63% | 1010.9 hPa | 0 mm | - | - | - |
| 1777390207 | 11.67° C | 64% | 1010.9 hPa | 0 mm | - | - | - |
| 1777389607 | 11.67° C | 64% | 1011.1 hPa | 0 mm | - | - | - |
| 1777389007 | 11.11° C | 63% | 1010.8 hPa | 0 mm | - | - | - |
| 1777388407 | 10.56° C | 67% | 1010.7 hPa | 0 mm | - | - | - |
| 1777387806 | 10° C | 66% | 1010.5 hPa | 0 mm | - | - | - |
| 1777387206 | 10° C | 67% | 1010.2 hPa | 0 mm | - | - | - |
| 1777386607 | 9.44° C | 68% | 1010 hPa | 0 mm | - | - | - |
| 1777386007 | 9.44° C | 69% | 1009.6 hPa | 0 mm | - | - | - |
| 1777385406 | 9.44° C | 70% | 1009.6 hPa | 0 mm | - | - | - |
| 1777384806 | 9.44° C | 71% | 1009.3 hPa | 0 mm | - | - | - |
| 1777384206 | 8.89° C | 70% | 1009 hPa | 0 mm | - | - | - |
| 1777383606 | 8.89° C | 71% | 1009 hPa | 0 mm | - | - | - |
| 1777383007 | 8.89° C | 71% | 1008.7 hPa | 0 mm | - | - | - |
| 1777382407 | 8.89° C | 70% | 1008.3 hPa | 0 mm | - | - | - |
| 1777381807 | 8.89° C | 71% | 1007.9 hPa | 0 mm | - | - | - |
| 1777381207 | 8.89° C | 70% | 1007.9 hPa | 0 mm | - | - | - |
| 1777380607 | 9.44° C | 70% | 1007.8 hPa | 0 mm | - | - | - |
| 1777380007 | 9.44° C | 72% | 1007.2 hPa | 0 mm | - | - | - |
| 1777379407 | 10° C | 73% | 1006.9 hPa | 0 mm | - | - | - |
| 1777378807 | 10° C | 74% | 1006.5 hPa | 0 mm | - | - | - |
| 1777378207 | 10° C | 75% | 1006.3 hPa | 0 mm | - | - | - |
* Rain latest hour (hover to see other rain measurements)
** Current wind speed in m/s (hover to see current wind gust speed)